"Time","Value","Approval","myLocation"
"2023-05-06 00:00",1.38284113865932,"Approved","OW499"
"2023-05-06 01:00",1.31884297520661,"Approved","OW499"
"2023-05-06 02:00",1.2498448117539,"Approved","OW499"
"2023-05-06 03:00",1.23084664830119,"Approved","OW499"
"2023-05-06 04:00",1.25684848484848,"Approved","OW499"
"2023-05-06 05:00",1.30185032139578,"Approved","OW499"
"2023-05-06 06:00",1.33785215794307,"Approved","OW499"
"2023-05-06 07:00",1.35885399449036,"Approved","OW499"
"2023-05-06 08:00",1.37085583103765,"Approved","OW499"
"2023-05-06 09:00",1.37485766758494,"Approved","OW499"
"2023-05-06 10:00",1.36585950413223,"Approved","OW499"
"2023-05-06 11:00",1.32686134067952,"Approved","OW499"
"2023-05-06 12:00",1.26786317722681,"Approved","OW499"
"2023-05-06 13:00",1.2298650137741,"Approved","OW499"
"2023-05-06 14:00",1.2518668503214,"Approved","OW499"
"2023-05-06 15:00",1.31686868686869,"Approved","OW499"
"2023-05-06 16:00",1.36187052341598,"Approved","OW499"
"2023-05-06 17:00",1.38987235996327,"Approved","OW499"
"2023-05-06 18:00",1.41087419651056,"Approved","OW499"
"2023-05-06 19:00",1.42987603305785,"Approved","OW499"
"2023-05-06 20:00",1.44487786960514,"Approved","OW499"
"2023-05-06 21:00",1.45687970615243,"Approved","OW499"
"2023-05-06 22:00",1.46688154269972,"Approved","OW499"
"2023-05-06 23:00",1.47088337924702,"Approved","OW499"
"2023-05-07 00:00",1.46288521579431,"Approved","OW499"
"2023-05-07 01:00",1.4138870523416,"Approved","OW499"
"2023-05-07 02:00",1.31988888888889,"Approved","OW499"
"2023-05-07 03:00",1.23589072543618,"Approved","OW499"
"2023-05-07 04:00",1.21489256198347,"Approved","OW499"
"2023-05-07 05:00",1.24289439853076,"Approved","OW499"
"2023-05-07 06:00",1.29289623507805,"Approved","OW499"
"2023-05-07 07:00",1.34189807162534,"Approved","OW499"
"2023-05-07 08:00",1.36889990817264,"Approved","OW499"
"2023-05-07 09:00",1.38190174471993,"Approved","OW499"
"2023-05-07 10:00",1.37590358126722,"Approved","OW499"
"2023-05-07 11:00",1.34190541781451,"Approved","OW499"
"2023-05-07 12:00",1.2859072543618,"Approved","OW499"
"2023-05-07 13:00",1.23490909090909,"Approved","OW499"
"2023-05-07 14:00",1.22891092745638,"Approved","OW499"
"2023-05-07 15:00",1.28591276400367,"Approved","OW499"
"2023-05-07 16:00",1.35591460055096,"Approved","OW499"
"2023-05-07 17:00",1.39291643709826,"Approved","OW499"
"2023-05-07 18:00",1.41891827364555,"Approved","OW499"
"2023-05-07 19:00",1.44092011019284,"Approved","OW499"
"2023-05-07 20:00",1.45892194674013,"Approved","OW499"
"2023-05-07 21:00",1.47392378328742,"Approved","OW499"
"2023-05-07 22:00",1.48592561983471,"Approved","OW499"
"2023-05-07 23:00",1.493927456382,"Approved","OW499"
"2023-05-08 00:00",1.49692929292929,"Approved","OW499"
"2023-05-08 01:00",1.47993112947658,"Approved","OW499"
"2023-05-08 02:00",1.40193296602388,"Approved","OW499"
"2023-05-08 03:00",1.28893480257117,"Approved","OW499"
"2023-05-08 04:00",1.20393663911846,"Approved","OW499"
"2023-05-08 05:00",1.18793847566575,"Approved","OW499"
"2023-05-08 06:00",1.22394031221304,"Approved","OW499"
"2023-05-08 07:00",1.27494214876033,"Approved","OW499"
"2023-05-08 08:00",1.32394398530762,"Approved","OW499"
"2023-05-08 09:00",1.35294582185491,"Approved","OW499"
"2023-05-08 10:00",1.3609476584022,"Approved","OW499"
"2023-05-08 11:00",1.3449494949495,"Approved","OW499"
"2023-05-08 12:00",1.30695133149679,"Approved","OW499"
"2023-05-08 13:00",1.25595316804408,"Approved","OW499"
"2023-05-08 14:00",1.22895500459137,"Approved","OW499"
"2023-05-08 15:00",1.25695684113866,"Approved","OW499"
"2023-05-08 16:00",1.32795867768595,"Approved","OW499"
"2023-05-08 17:00",1.38096051423324,"Approved","OW499"
"2023-05-08 18:00",1.41096235078053,"Approved","OW499"
"2023-05-08 19:00",1.43496418732782,"Approved","OW499"
"2023-05-08 20:00",1.45496602387511,"Approved","OW499"
"2023-05-08 21:00",1.47196786042241,"Approved","OW499"
"2023-05-08 22:00",1.4869696969697,"Approved","OW499"
"2023-05-08 23:00",1.49797153351699,"Approved","OW499"
"2023-05-09 00:00",1.50597337006428,"Approved","OW499"
"2023-05-09 01:00",1.50597520661157,"Approved","OW499"
"2023-05-09 02:00",1.47897704315886,"Approved","OW499"
"2023-05-09 03:00",1.38497887970615,"Approved","OW499"
"2023-05-09 04:00",1.26598071625344,"Approved","OW499"
"2023-05-09 05:00",1.18298255280073,"Approved","OW499"
"2023-05-09 06:00",1.16998438934803,"Approved","OW499"
"2023-05-09 07:00",1.20498622589532,"Approved","OW499"
"2023-05-09 08:00",1.25298806244261,"Approved","OW499"
"2023-05-09 09:00",1.2999898989899,"Approved","OW499"
"2023-05-09 10:00",1.32699173553719,"Approved","OW499"
"2023-05-09 11:00",1.33299357208448,"Approved","OW499"
"2023-05-09 12:00",1.31599540863177,"Approved","OW499"
"2023-05-09 13:00",1.28199724517906,"Approved","OW499"
"2023-05-09 14:00",1.24999908172635,"Approved","OW499"
"2023-05-09 15:00",1.24600091827365,"Approved","OW499"
"2023-05-09 16:00",1.29300275482094,"Approved","OW499"
"2023-05-09 17:00",1.35700459136823,"Approved","OW499"
"2023-05-09 18:00",1.39400642791552,"Approved","OW499"
"2023-05-09 19:00",1.41900826446281,"Approved","OW499"
"2023-05-09 20:00",1.4410101010101,"Approved","OW499"
"2023-05-09 21:00",1.45901193755739,"Approved","OW499"
"2023-05-09 22:00",1.47501377410468,"Approved","OW499"
"2023-05-09 23:00",1.48801561065197,"Approved","OW499"
"2023-05-10 00:00",1.49701744719927,"Approved","OW499"
"2023-05-10 01:00",1.50301928374656,"Approved","OW499"
"2023-05-10 02:00",1.49902112029385,"Approved","OW499"
"2023-05-10 03:00",1.46602295684114,"Approved","OW499"
"2023-05-10 04:00",1.37002479338843,"Approved","OW499"
"2023-05-10 05:00",1.25302662993572,"Approved","OW499"
"2023-05-10 06:00",1.17902846648301,"Approved","OW499"
"2023-05-10 07:00",1.1660303030303,"Approved","OW499"
"2023-05-10 08:00",1.20003213957759,"Approved","OW499"
"2023-05-10 09:00",1.24703397612489,"Approved","OW499"
"2023-05-10 10:00",1.28803581267218,"Approved","OW499"
"2023-05-10 11:00",1.31603764921947,"Approved","OW499"
"2023-05-10 12:00",1.32503948576676,"Approved","OW499"
"2023-05-10 13:00",1.31704132231405,"Approved","OW499"
"2023-05-10 14:00",1.29904315886134,"Approved","OW499"
"2023-05-10 15:00",1.28304499540863,"Approved","OW499"
"2023-05-10 16:00",1.29504683195592,"Approved","OW499"
"2023-05-10 17:00",1.34104866850321,"Approved","OW499"
"2023-05-10 18:00",1.3830505050505,"Approved","OW499"
"2023-05-10 19:00",1.4110523415978,"Approved","OW499"
"2023-05-10 20:00",1.43205417814509,"Approved","OW499"
"2023-05-10 21:00",1.45205601469238,"Approved","OW499"
"2023-05-10 22:00",1.46905785123967,"Approved","OW499"
"2023-05-10 23:00",1.48305968778696,"Approved","OW499"
"2023-05-11 00:00",1.49506152433425,"Approved","OW499"
"2023-05-11 01:00",1.50506336088154,"Approved","OW499"
"2023-05-11 02:00",1.50906519742883,"Approved","OW499"
"2023-05-11 03:00",1.50406703397613,"Approved","OW499"
"2023-05-11 04:00",1.46406887052342,"Approved","OW499"
"2023-05-11 05:00",1.36707070707071,"Approved","OW499"
"2023-05-11 06:00",1.253072543618,"Approved","OW499"
"2023-05-11 07:00",1.17807438016529,"Approved","OW499"
"2023-05-11 08:00",1.16807621671258,"Approved","OW499"
"2023-05-11 09:00",1.20607805325987,"Approved","OW499"
"2023-05-11 10:00",1.25107988980716,"Approved","OW499"
"2023-05-11 11:00",1.29708172635445,"Approved","OW499"
"2023-05-11 12:00",1.33008356290174,"Approved","OW499"
"2023-05-11 13:00",1.34708539944904,"Approved","OW499"
"2023-05-11 14:00",1.35208723599633,"Approved","OW499"
"2023-05-11 15:00",1.35008907254362,"Approved","OW499"
"2023-05-11 16:00",1.34809090909091,"Approved","OW499"
"2023-05-11 17:00",1.3610927456382,"Approved","OW499"
"2023-05-11 18:00",1.38909458218549,"Approved","OW499"
"2023-05-11 19:00",1.41609641873278,"Approved","OW499"
"2023-05-11 20:00",1.43709825528007,"Approved","OW499"
"2023-05-11 21:00",1.45510009182736,"Approved","OW499"
"2023-05-11 22:00",1.47110192837466,"Approved","OW499"
"2023-05-11 23:00",1.48610376492195,"Approved","OW499"
"2023-05-12 00:00",1.49810560146924,"Approved","OW499"
"2023-05-12 01:00",1.50710743801653,"Approved","OW499"
"2023-05-12 02:00",1.51310927456382,"Approved","OW499"
"2023-05-12 03:00",1.51211111111111,"Approved","OW499"
"2023-05-12 04:00",1.5001129476584,"Approved","OW499"
"2023-05-12 05:00",1.45611478420569,"Approved","OW499"
"2023-05-12 06:00",1.36011662075298,"Approved","OW499"
"2023-05-12 07:00",1.24611845730028,"Approved","OW499"
"2023-05-12 08:00",1.18012029384757,"Approved","OW499"
"2023-05-12 09:00",1.18012213039486,"Approved","OW499"
"2023-05-12 10:00",1.22512396694215,"Approved","OW499"
"2023-05-12 11:00",1.27812580348944,"Approved","OW499"
"2023-05-12 12:00",1.32712764003673,"Approved","OW499"
"2023-05-12 13:00",1.35712947658402,"Approved","OW499"
"2023-05-12 14:00",1.37613131313131,"Approved","OW499"
"2023-05-12 15:00",1.3891331496786,"Approved","OW499"
"2023-05-12 16:00",1.3971349862259,"Approved","OW499"
"2023-05-12 17:00",1.40313682277319,"Approved","OW499"
"2023-05-12 18:00",1.41313865932048,"Approved","OW499"
"2023-05-12 19:00",1.42814049586777,"Approved","OW499"
"2023-05-12 20:00",1.44614233241506,"Approved","OW499"
"2023-05-12 21:00",1.46214416896235,"Approved","OW499"
"2023-05-12 22:00",1.47714600550964,"Approved","OW499"
"2023-05-12 23:00",1.49014784205693,"Approved","OW499"
"2023-05-13 00:00",1.50114967860422,"Approved","OW499"
"2023-05-13 01:00",1.51015151515152,"Approved","OW499"
"2023-05-13 02:00",1.51415335169881,"Approved","OW499"
"2023-05-13 03:00",1.5131551882461,"Approved","OW499"
"2023-05-13 04:00",1.50715702479339,"Approved","OW499"
"2023-05-13 05:00",1.49315886134068,"Approved","OW499"
"2023-05-13 06:00",1.45516069788797,"Approved","OW499"
"2023-05-13 07:00",1.37116253443526,"Approved","OW499"
"2023-05-13 08:00",1.27016437098255,"Approved","OW499"
"2023-05-13 09:00",1.21816620752984,"Approved","OW499"
"2023-05-13 10:00",1.23016804407713,"Approved","OW499"
"2023-05-13 11:00",1.27616988062443,"Approved","OW499"
"2023-05-13 12:00",1.33217171717172,"Approved","OW499"
"2023-05-13 13:00",1.37017355371901,"Approved","OW499"
"2023-05-13 14:00",1.3921753902663,"Approved","OW499"
"2023-05-13 15:00",1.40817722681359,"Approved","OW499"
"2023-05-13 16:00",1.42017906336088,"Approved","OW499"
"2023-05-13 17:00",1.42918089990817,"Approved","OW499"
"2023-05-13 18:00",1.43618273645546,"Approved","OW499"
"2023-05-13 19:00",1.44218457300275,"Approved","OW499"
"2023-05-13 20:00",1.45218640955005,"Approved","OW499"
"2023-05-13 21:00",1.46318824609734,"Approved","OW499"
"2023-05-13 22:00",1.47519008264463,"Approved","OW499"
"2023-05-13 23:00",1.48619191919192,"Approved","OW499"
"2023-05-14 00:00",1.49319375573921,"Approved","OW499"
"2023-05-14 01:00",1.4971955922865,"Approved","OW499"
"2023-05-14 02:00",1.49619742883379,"Approved","OW499"
"2023-05-14 03:00",1.49319926538108,"Approved","OW499"
"2023-05-14 04:00",1.48820110192837,"Approved","OW499"
"2023-05-14 05:00",1.48120293847567,"Approved","OW499"
"2023-05-14 06:00",1.46620477502296,"Approved","OW499"
"2023-05-14 07:00",1.42920661157025,"Approved","OW499"
"2023-05-14 08:00",1.35120844811754,"Approved","OW499"
"2023-05-14 09:00",1.26221028466483,"Approved","OW499"
"2023-05-14 10:00",1.22921212121212,"Approved","OW499"
"2023-05-14 11:00",1.25921395775941,"Approved","OW499"
"2023-05-14 12:00",1.3112157943067,"Approved","OW499"
"2023-05-14 13:00",1.35721763085399,"Approved","OW499"
"2023-05-14 14:00",1.38221946740129,"Approved","OW499"
"2023-05-14 15:00",1.40022130394858,"Approved","OW499"
"2023-05-14 16:00",1.41322314049587,"Approved","OW499"
"2023-05-14 17:00",1.42222497704316,"Approved","OW499"
"2023-05-14 18:00",1.42922681359045,"Approved","OW499"
"2023-05-14 19:00",1.43222865013774,"Approved","OW499"
"2023-05-14 20:00",1.43323048668503,"Approved","OW499"
"2023-05-14 21:00",1.43623232323232,"Approved","OW499"
"2023-05-14 22:00",1.44123415977961,"Approved","OW499"
"2023-05-14 23:00",1.44823599632691,"Approved","OW499"
"2023-05-15 00:00",1.4522378328742,"Approved","OW499"
"2023-05-15 01:00",1.45323966942149,"Approved","OW499"
"2023-05-15 02:00",1.45324150596878,"Approved","OW499"
"2023-05-15 03:00",1.45324334251607,"Approved","OW499"
"2023-05-15 04:00",1.45224517906336,"Approved","OW499"
"2023-05-15 05:00",1.45024701561065,"Approved","OW499"
"2023-05-15 06:00",1.44424885215794,"Approved","OW499"
"2023-05-15 07:00",1.42825068870523,"Approved","OW499"
"2023-05-15 08:00",1.37725252525253,"Approved","OW499"
"2023-05-15 09:00",1.28925436179982,"Approved","OW499"
"2023-05-15 10:00",1.21525619834711,"Approved","OW499"
"2023-05-15 11:00",1.2162580348944,"Approved","OW499"
"2023-05-15 12:00",1.26825987144169,"Approved","OW499"
"2023-05-15 13:00",1.32826170798898,"Approved","OW499"
"2023-05-15 14:00",1.36426354453627,"Approved","OW499"
"2023-05-15 15:00",1.38526538108356,"Approved","OW499"
"2023-05-15 16:00",1.40226721763085,"Approved","OW499"
"2023-05-15 17:00",1.41626905417815,"Approved","OW499"
"2023-05-15 18:00",1.42727089072544,"Approved","OW499"
"2023-05-15 19:00",1.43427272727273,"Approved","OW499"
"2023-05-15 20:00",1.43627456382002,"Approved","OW499"
"2023-05-15 21:00",1.43227640036731,"Approved","OW499"
"2023-05-15 22:00",1.4222782369146,"Approved","OW499"
"2023-05-15 23:00",1.41628007346189,"Approved","OW499"
"2023-05-16 00:00",1.42328191000918,"Approved","OW499"
"2023-05-16 01:00",1.43028374655647,"Approved","OW499"
"2023-05-16 02:00",1.43428558310376,"Approved","OW499"
"2023-05-16 03:00",1.43628741965106,"Approved","OW499"
"2023-05-16 04:00",1.43828925619835,"Approved","OW499"
"2023-05-16 05:00",1.43829109274564,"Approved","OW499"
"2023-05-16 06:00",1.43629292929293,"Approved","OW499"
"2023-05-16 07:00",1.42729476584022,"Approved","OW499"
"2023-05-16 08:00",1.40029660238751,"Approved","OW499"
"2023-05-16 09:00",1.3262984389348,"Approved","OW499"
"2023-05-16 10:00",1.23030027548209,"Approved","OW499"
"2023-05-16 11:00",1.18530211202938,"Approved","OW499"
"2023-05-16 12:00",1.22230394857668,"Approved","OW499"
"2023-05-16 13:00",1.28630578512397,"Approved","OW499"
"2023-05-16 14:00",1.33930762167126,"Approved","OW499"
"2023-05-16 15:00",1.36730945821855,"Approved","OW499"
"2023-05-16 16:00",1.38731129476584,"Approved","OW499"
"2023-05-16 17:00",1.40431313131313,"Approved","OW499"
"2023-05-16 18:00",1.41731496786042,"Approved","OW499"
"2023-05-16 19:00",1.42731680440771,"Approved","OW499"
"2023-05-16 20:00",1.434318640955,"Approved","OW499"
"2023-05-16 21:00",1.4343204775023,"Approved","OW499"
"2023-05-16 22:00",1.42332231404959,"Approved","OW499"
"2023-05-16 23:00",1.39632415059688,"Approved","OW499"
"2023-05-17 00:00",1.37332598714417,"Approved","OW499"
"2023-05-17 01:00",1.37732782369146,"Approved","OW499"
"2023-05-17 02:00",1.39232966023875,"Approved","OW499"
"2023-05-17 03:00",1.40333149678604,"Approved","OW499"
"2023-05-17 04:00",1.41133333333333,"Approved","OW499"
"2023-05-17 05:00",1.41733516988062,"Approved","OW499"
"2023-05-17 06:00",1.42033700642792,"Approved","OW499"
"2023-05-17 07:00",1.41833884297521,"Approved","OW499"
"2023-05-17 08:00",1.4073406795225,"Approved","OW499"
"2023-05-17 09:00",1.36434251606979,"Approved","OW499"
"2023-05-17 10:00",1.28834435261708,"Approved","OW499"
"2023-05-17 11:00",1.21534618916437,"Approved","OW499"
"2023-05-17 12:00",1.21234802571166,"Approved","OW499"
"2023-05-17 13:00",1.26934986225895,"Approved","OW499"
"2023-05-17 14:00",1.33235169880624,"Approved","OW499"
"2023-05-17 15:00",1.36535353535354,"Approved","OW499"
"2023-05-17 16:00",1.38835537190083,"Approved","OW499"
"2023-05-17 17:00",1.40635720844812,"Approved","OW499"
"2023-05-17 18:00",1.42135904499541,"Approved","OW499"
"2023-05-17 19:00",1.4343608815427,"Approved","OW499"
"2023-05-17 20:00",1.44336271808999,"Approved","OW499"
"2023-05-17 21:00",1.44736455463728,"Approved","OW499"
"2023-05-17 22:00",1.44236639118457,"Approved","OW499"
"2023-05-17 23:00",1.41336822773186,"Approved","OW499"
"2023-05-18 00:00",1.35337006427916,"Approved","OW499"
"2023-05-18 01:00",1.31237190082645,"Approved","OW499"
"2023-05-18 02:00",1.30837373737374,"Approved","OW499"
"2023-05-18 03:00",1.33237557392103,"Approved","OW499"
"2023-05-18 04:00",1.35837741046832,"Approved","OW499"
"2023-05-18 05:00",1.37337924701561,"Approved","OW499"
"2023-05-18 06:00",1.3823810835629,"Approved","OW499"
"2023-05-18 07:00",1.38638292011019,"Approved","OW499"
"2023-05-18 08:00",1.38238475665748,"Approved","OW499"
"2023-05-18 09:00",1.35738659320478,"Approved","OW499"
"2023-05-18 10:00",1.29438842975207,"Approved","OW499"
"2023-05-18 11:00",1.21439026629936,"Approved","OW499"
"2023-05-18 12:00",1.17939210284665,"Approved","OW499"
"2023-05-18 13:00",1.22039393939394,"Approved","OW499"
"2023-05-18 14:00",1.29139577594123,"Approved","OW499"
"2023-05-18 15:00",1.34039761248852,"Approved","OW499"
"2023-05-18 16:00",1.36739944903581,"Approved","OW499"
"2023-05-18 17:00",1.3884012855831,"Approved","OW499"
"2023-05-18 18:00",1.40640312213039,"Approved","OW499"
"2023-05-18 19:00",1.42140495867769,"Approved","OW499"
"2023-05-18 20:00",1.43340679522498,"Approved","OW499"
"2023-05-18 21:00",1.44040863177227,"Approved","OW499"
"2023-05-18 22:00",1.44141046831956,"Approved","OW499"
"2023-05-18 23:00",1.42541230486685,"Approved","OW499"
"2023-05-19 00:00",1.36241414141414,"Approved","OW499"
"2023-05-19 01:00",1.27441597796143,"Approved","OW499"
"2023-05-19 02:00",1.21341781450872,"Approved","OW499"
"2023-05-19 03:00",1.21941965105601,"Approved","OW499"
"2023-05-19 04:00",1.25542148760331,"Approved","OW499"
"2023-05-19 05:00",1.2974233241506,"Approved","OW499"
"2023-05-19 06:00",1.32542516069789,"Approved","OW499"
"2023-05-19 07:00",1.34042699724518,"Approved","OW499"
"2023-05-19 08:00",1.34642883379247,"Approved","OW499"
"2023-05-19 09:00",1.33843067033976,"Approved","OW499"
"2023-05-19 10:00",1.30143250688705,"Approved","OW499"
"2023-05-19 11:00",1.23843434343434,"Approved","OW499"
"2023-05-19 12:00",1.19143617998163,"Approved","OW499"
"2023-05-19 13:00",1.19943801652893,"Approved","OW499"
"2023-05-19 14:00",1.26343985307622,"Approved","OW499"
"2023-05-19 15:00",1.32444168962351,"Approved","OW499"
"2023-05-19 16:00",1.3564435261708,"Approved","OW499"
"2023-05-19 17:00",1.38044536271809,"Approved","OW499"
"2023-05-19 18:00",1.40044719926538,"Approved","OW499"
"2023-05-19 19:00",1.41744903581267,"Approved","OW499"
"2023-05-19 20:00",1.43045087235996,"Approved","OW499"
"2023-05-19 21:00",1.44145270890725,"Approved","OW499"
"2023-05-19 22:00",1.44745454545455,"Approved","OW499"
"2023-05-19 23:00",1.44445638200184,"Approved","OW499"
"2023-05-20 00:00",1.41545821854913,"Approved","OW499"
"2023-05-20 01:00",1.32946005509642,"Approved","OW499"
"2023-05-20 02:00",1.22046189164371,"Approved","OW499"
"2023-05-20 03:00",1.162463728191,"Approved","OW499"
"2023-05-20 04:00",1.16946556473829,"Approved","OW499"
"2023-05-20 05:00",1.21546740128558,"Approved","OW499"
"2023-05-20 06:00",1.26346923783287,"Approved","OW499"
"2023-05-20 07:00",1.29847107438017,"Approved","OW499"
"2023-05-20 08:00",1.31647291092746,"Approved","OW499"
"2023-05-20 09:00",1.32147474747475,"Approved","OW499"
"2023-05-20 10:00",1.30747658402204,"Approved","OW499"
"2023-05-20 11:00",1.27347842056933,"Approved","OW499"
"2023-05-20 12:00",1.23148025711662,"Approved","OW499"
"2023-05-20 13:00",1.21648209366391,"Approved","OW499"
"2023-05-20 14:00",1.2514839302112,"Approved","OW499"
"2023-05-20 15:00",1.31548576675849,"Approved","OW499"
"2023-05-20 16:00",1.35348760330579,"Approved","OW499"
"2023-05-20 17:00",1.37848943985308,"Approved","OW499"
"2023-05-20 18:00",1.39949127640037,"Approved","OW499"
"2023-05-20 19:00",1.41749311294766,"Approved","OW499"
"2023-05-20 20:00",1.43249494949495,"Approved","OW499"
"2023-05-20 21:00",1.44549678604224,"Approved","OW499"
"2023-05-20 22:00",1.45449862258953,"Approved","OW499"
"2023-05-20 23:00",1.45750045913682,"Approved","OW499"
"2023-05-21 00:00",1.44650229568411,"Approved","OW499"
"2023-05-21 01:00",1.3905041322314,"Approved","OW499"
"2023-05-21 02:00",1.2795059687787,"Approved","OW499"
"2023-05-21 03:00",1.16650780532599,"Approved","OW499"
"2023-05-21 04:00",1.12450964187328,"Approved","OW499"
"2023-05-21 05:00",1.13851147842057,"Approved","OW499"
"2023-05-21 06:00",1.18951331496786,"Approved","OW499"
"2023-05-21 07:00",1.23851515151515,"Approved","OW499"
"2023-05-21 08:00",1.27551698806244,"Approved","OW499"
"2023-05-21 09:00",1.29351882460973,"Approved","OW499"
"2023-05-21 10:00",1.29552066115702,"Approved","OW499"
"2023-05-21 11:00",1.27752249770432,"Approved","OW499"
"2023-05-21 12:00",1.24652433425161,"Approved","OW499"
"2023-05-21 13:00",1.2205261707989,"Approved","OW499"
"2023-05-21 14:00",1.23152800734619,"Approved","OW499"
"2023-05-21 15:00",1.28752984389348,"Approved","OW499"
"2023-05-21 16:00",1.33753168044077,"Approved","OW499"
"2023-05-21 17:00",1.36653351698806,"Approved","OW499"
"2023-05-21 18:00",1.38953535353535,"Approved","OW499"
"2023-05-21 19:00",1.40853719008264,"Approved","OW499"
"2023-05-21 20:00",1.42653902662994,"Approved","OW499"
"2023-05-21 21:00",1.44054086317723,"Approved","OW499"
"2023-05-21 22:00",1.45254269972452,"Approved","OW499"
"2023-05-21 23:00",1.46154453627181,"Approved","OW499"
"2023-05-22 00:00",1.4635463728191,"Approved","OW499"
"2023-05-22 01:00",1.44654820936639,"Approved","OW499"
"2023-05-22 02:00",1.36855004591368,"Approved","OW499"
"2023-05-22 03:00",1.25255188246097,"Approved","OW499"
"2023-05-22 04:00",1.15555371900826,"Approved","OW499"
"2023-05-22 05:00",1.13055555555556,"Approved","OW499"
"2023-05-22 06:00",1.15955739210285,"Approved","OW499"
"2023-05-22 07:00",1.20855922865014,"Approved","OW499"
"2023-05-22 08:00",1.25856106519743,"Approved","OW499"
"2023-05-22 09:00",1.29556290174472,"Approved","OW499"
"2023-05-22 10:00",1.31356473829201,"Approved","OW499"
"2023-05-22 11:00",1.3175665748393,"Approved","OW499"
"2023-05-22 12:00",1.30956841138659,"Approved","OW499"
"2023-05-22 13:00",1.29457024793388,"Approved","OW499"
"2023-05-22 14:00",1.29357208448118,"Approved","OW499"
"2023-05-22 15:00",1.32357392102847,"Approved","OW499"
"2023-05-22 16:00",1.36757575757576,"Approved","OW499"
"2023-05-22 17:00",1.39557759412305,"Approved","OW499"
"2023-05-22 18:00",1.41757943067034,"Approved","OW499"
"2023-05-22 19:00",1.43858126721763,"Approved","OW499"
"2023-05-22 20:00",1.45558310376492,"Approved","OW499"
"2023-05-22 21:00",1.47058494031221,"Approved","OW499"
"2023-05-22 22:00",1.4845867768595,"Approved","OW499"
"2023-05-22 23:00",1.4945886134068,"Approved","OW499"
"2023-05-23 00:00",1.50159044995409,"Approved","OW499"
"2023-05-23 01:00",1.50159228650138,"Approved","OW499"
"2023-05-23 02:00",1.47659412304867,"Approved","OW499"
"2023-05-23 03:00",1.38959595959596,"Approved","OW499"
"2023-05-23 04:00",1.28359779614325,"Approved","OW499"
"2023-05-23 05:00",1.20859963269054,"Approved","OW499"
"2023-05-23 06:00",1.19760146923783,"Approved","OW499"
"2023-05-23 07:00",1.23160330578512,"Approved","OW499"
"2023-05-23 08:00",1.27660514233241,"Approved","OW499"
"2023-05-23 09:00",1.32360697887971,"Approved","OW499"
"2023-05-23 10:00",1.354608815427,"Approved","OW499"
"2023-05-23 11:00",1.37061065197429,"Approved","OW499"
"2023-05-23 12:00",1.37461248852158,"Approved","OW499"
"2023-05-23 13:00",1.37161432506887,"Approved","OW499"
"2023-05-23 14:00",1.36861616161616,"Approved","OW499"
"2023-05-23 15:00",1.38061799816345,"Approved","OW499"
"2023-05-23 16:00",1.41161983471074,"Approved","OW499"
"2023-05-23 17:00",1.44162167125803,"Approved","OW499"
"2023-05-23 18:00",1.46362350780533,"Approved","OW499"
"2023-05-23 19:00",1.48262534435262,"Approved","OW499"